Flight Track Log - Related Links

Times and Time Zones

All times are in EDT time to prevent confusion due to time zone crossing. See the JBU462 flight status page for this flight to view local times or setup timezone preferences in your user account.

Time Position Orientation Groundspeed Altitude Reporting Facility
EDT Latitude Longitude Course Direction KTS MPH feet Rate Location/Type
Thu 12:42:32 PM 18.4500 -65.9833 317° Northwest 150 173 1,200  Level San Juan Center
Thu 12:43:32 PM 18.5000 -66.0000 342° North 230 265 2,200 1,884 Climbing San Juan Center
Thu 12:44:33 PM 18.5333 -66.0667 298° West 280 322 5,000 2,926 Climbing San Juan Center
Thu 12:45:00 PM 18.7603 -66.3102 317° Northwest  Level FlightAware Approximate
Thu 12:45:33 PM 18.5833 -66.1333 308° West 280 322 8,100  Level San Juan Center
Thu 12:46:00 PM 18.8415 -66.3915 317° Northwest  Level FlightAware Approximate
Thu 12:46:33 PM 18.6500 -66.2000 317° Northwest 310 357 10,800  Level San Juan Center
Thu 12:47:00 PM 18.9227 -66.4727 317° Northwest  Level FlightAware Approximate
Thu 12:47:34 PM 18.7000 -66.2667 308° West 310 357 13,400  Level San Juan Center
Thu 12:48:34 PM 18.7667 -66.3333 317° Northwest 310 357 16,200 2,350 Climbing San Juan Center
Thu 12:49:34 PM 18.8167 -66.4000 308° West 320 368 18,100 1,934 Climbing San Juan Center
Thu 12:50:35 PM 18.8667 -66.4833 302° West 320 368 20,100 1,884 Climbing San Juan Center
Thu 12:51:35 PM 18.9167 -66.5500 308° West 310 357 21,900 1,650 Climbing San Juan Center
Thu 12:52:35 PM 18.9333 -66.6500 280° West 320 368 23,400 1,600 Climbing San Juan Center
Thu 12:53:35 PM 18.9333 -66.7500 270° West 340 391 25,100 1,488 Climbing San Juan Center
Thu 12:54:36 PM 18.9833 -66.8500 298° West 340 391 26,400 1,289 Climbing San Juan Center
Thu 12:55:36 PM 19.0167 -66.9333 293° West 340 391 27,700 950 Climbing San Juan Center
Thu 12:56:36 PM 19.0833 -67.0167 310° West 380 437 28,300 397 Climbing San Juan Center
Thu 12:57:37 PM 19.1667 -67.0667 330° Northwest 400 460 28,500 298 Climbing San Juan Center
Thu 12:58:37 PM 19.2667 -67.1333 328° Northwest 430 495 28,900 650 Climbing San Juan Center
Thu 12:59:37 PM 19.3833 -67.2000 332° Northwest 440 506 29,800 1,200 Climbing San Juan Center
Thu 01:00:37 PM 19.4833 -67.2667 328° Northwest 440 506 31,300 1,091 Climbing San Juan Center
Thu 01:01:38 PM 19.5833 -67.3333 328° Northwest 430 495 32,000 694 Climbing San Juan Center
Thu 01:02:38 PM 19.7000 -67.4000 332° Northwest 440 506 32,700 992 Climbing San Juan Center
Thu 01:03:39 PM 19.8000 -67.4667 328° Northwest 430 495 34,000 645 Climbing San Juan Center
Thu 01:04:39 PM 19.9000 -67.5333 328° Northwest 430 495 34,000  Level San Juan Center
Thu 01:05:39 PM 20.0000 -67.6000 328° Northwest 430 495 34,000  Level San Juan Center
Thu 01:07:11 PM 20.1892 -67.7153 330° Northwest 439 505 34,000  Level Miami Center
Thu 01:08:11 PM 20.3008 -67.7761 333° Northwest 446 513 34,000  Level Miami Center
Thu 01:09:11 PM 20.4006 -67.8447 327° Northwest 441 507 34,000  Level Miami Center
Thu 01:10:11 PM 20.5083 -67.9106 330° Northwest 446 513 34,000  Level Miami Center
Thu 01:11:11 PM 20.6272 -67.9514 342° North 446 513 34,000  Level Miami Center
Thu 01:12:11 PM 20.7517 -67.9808 348° North 452 520 34,000  Level Miami Center
Thu 01:13:11 PM 20.8764 -68.0125 347° North 452 520 34,000  Level Miami Center
Thu 01:14:11 PM 21.0008 -68.0444 347° North 460 529 34,000  Level Miami Center
Thu 01:15:11 PM 21.1236 -68.0764 346° North 460 529 34,000  Level Miami Center
Thu 01:16:11 PM 21.2461 -68.1083 346° North 460 529 34,000  Level Miami Center
Thu 01:17:11 PM 21.3644 -68.1383 347° North 449 517 34,000  Level Miami Center
Thu 01:18:11 PM 21.4889 -68.1703 347° North 443 510 34,000  Level Miami Center
Thu 01:19:11 PM 21.6072 -68.2006 347° North 443 510 34,000  Level Miami Center
Thu 01:20:11 PM 21.7278 -68.2328 346° North 443 510 34,000  Level Miami Center
Thu 01:21:11 PM 21.8483 -68.2650 346° North 443 510 34,000  Level Miami Center
Thu 01:22:11 PM 21.9689 -68.2953 347° North 448 516 34,000  Level Miami Center
Thu 01:23:11 PM 22.0914 -68.3253 347° North 443 510 34,000  Level Miami Center
Thu 01:24:11 PM 22.2139 -68.3578 346° North 438 504 34,000  Level Miami Center
Thu 01:25:11 PM 22.3236 -68.3842 347° North 443 510 34,000  Level Miami Center
Thu 01:26:11 PM 22.4444 -68.4189 345° North 443 510 34,000  Level Miami Center
Thu 01:27:11 PM 22.5692 -68.4511 347° North 443 510 34,000  Level Miami Center
Thu 01:28:11 PM 22.6878 -68.4839 346° North 434 499 34,000  Level Miami Center
Thu 01:29:11 PM 22.7994 -68.5106 348° North 434 499 34,000  Level Miami Center
Thu 01:30:11 PM 22.9181 -68.5411 347° North 434 499 34,000  Level Miami Center
Thu 01:31:11 PM 23.0386 -68.5761 345° North 434 499 34,000  Level Miami Center
Thu 01:32:11 PM 23.1483 -68.6006 348° North 424 488 34,000  Level Miami Center
Thu 01:33:11 PM 23.2692 -68.6333 346° North 436 502 34,000  Level Miami Center
Thu 01:34:11 PM 23.3897 -68.6661 346° North 435 501 34,000  Level Miami Center
Thu 01:35:11 PM 23.5039 -68.6950 347° North 435 501 34,000  Level Miami Center
Thu 01:36:11 PM 23.6244 -68.7281 346° North 435 501 34,000  Level Miami Center
Thu 01:37:11 PM 23.7386 -68.7592 346° North 435 501 34,000  Level Miami Center
Thu 01:38:11 PM 23.8550 -68.7903 346° North 427 491 34,000  Level Miami Center
Thu 01:39:11 PM 23.9736 -68.8211 347° North 427 491 34,000  Level Miami Center
Thu 01:40:11 PM 24.0875 -68.8503 347° North 427 491 34,000  Level Miami Center
Thu 01:41:11 PM 24.2083 -68.8833 346° North 427 491 34,000  Level Miami Center
Thu 01:42:11 PM 24.3247 -68.9147 346° North 427 491 34,000  Level Miami Center
Thu 01:43:11 PM 24.4408 -68.9436 347° North 427 491 34,000  Level Miami Center
Thu 01:44:11 PM 24.5606 -68.9586 353° North 432 497 34,000  Level Miami Center
Thu 01:45:11 PM 24.6833 -68.9919 346° North 432 497 34,000  Level Miami Center
Thu 01:46:11 PM 24.7950 -69.0144 350° North 426 490 34,000  Level Miami Center
Thu 01:47:11 PM 24.9006 -69.0397 348° North 421 484 34,000  Level Miami Center
Thu 01:48:11 PM 25.0167 -69.0667 348° North 421 484 34,000  Level Miami Center
Thu 01:51:25 PM 25.0000 -69.1000 349° North 419 482 34,000  Level New York Oceanic (ODAPS)
Thu 02:02:40 PM 26.7167 -69.4500 349° North 419 482 34,000  Level New York Oceanic (ODAPS)
Thu 02:34:12 PM 30.4000 -70.2667 349° North 415 478 34,000  Level New York Oceanic (ODAPS)
Thu 03:26:54 PM 36.4256 -71.7058 348° North 434 499 34,000  Level New York Center
Thu 03:27:00 PM 36.5094 -71.7568 348° North 415 478 34,000  Level FlightAware Transoceanic
Thu 03:27:54 PM 36.5358 -71.7356 348° North 420 483 34,000  Level New York Center
Thu 03:28:00 PM 36.6224 -71.7865 348° North 415 478 34,000  Level FlightAware Transoceanic
Thu 03:28:54 PM 36.6442 -71.7656 347° North 400 460 34,000  Level New York Center
Thu 03:29:00 PM 36.7354 -71.8163 348° North 415 478 34,000 -100 Level FlightAware Transoceanic
Thu 03:29:54 PM 36.7461 -71.7953 347° North 385 443 33,900  Descending New York Center
Thu 03:30:00 PM 36.8483 -71.8462 348° North 415 478 34,000 100 Climbing FlightAware Transoceanic
Thu 03:30:54 PM 36.8647 -71.8075 355° North 398 458 34,000  Level New York Center
Thu 03:31:54 PM 36.9817 -71.8222 354° North 404 465 34,000  Level New York Center
Thu 03:32:54 PM 37.0897 -71.8392 353° North 404 465 34,000  Level New York Center
Thu 03:33:54 PM 37.2067 -71.8514 355° North 410 472 34,000  Level New York Center
Thu 03:34:54 PM 37.3150 -71.8661 354° North 411 473 34,000  Level New York Center
Thu 03:35:54 PM 37.4378 -71.8811 354° North 411 473 34,000  Level New York Center
Thu 03:36:54 PM 37.5419 -71.8931 355° North 399 459 34,000  Level New York Center
Thu 03:37:54 PM 37.6506 -71.9000 357° North 390 449 34,000  Level New York Center
Thu 03:38:54 PM 37.7586 -71.9203 352° North 378 435 34,000  Level New York Center
Thu 03:39:54 PM 37.8692 -71.9272 357° North 383 441 34,000  Level New York Center
Thu 03:40:54 PM 37.9817 -71.9369 356° North 388 447 34,000  Level New York Center
Thu 03:41:54 PM 38.0922 -71.9467 356° North 393 452 34,000  Level New York Center
Thu 03:42:54 PM 38.2003 -71.9750 348° North 393 452 34,000  Level New York Center
Thu 03:43:54 PM 38.3108 -71.9822 357° North 393 452 34,000  Level New York Center
Thu 03:44:54 PM 38.4211 -71.9972 354° North 393 452 34,000  Level New York Center
Thu 03:45:54 PM 38.5317 -72.0072 356° North 393 452 34,000  Level New York Center
Thu 03:46:54 PM 38.6400 -72.0197 355° North 393 452 34,000  Level New York Center
Thu 03:47:54 PM 38.7481 -72.0322 355° North 388 447 34,000  Level New York Center
Thu 03:48:54 PM 38.8586 -72.0475 354° North 388 447 34,000  Level New York Center
Thu 03:49:54 PM 38.9667 -72.0631 354° North 388 447 34,000  Level New York Center
Thu 03:50:54 PM 39.0731 -72.0783 354° North 388 447 34,000  Level New York Center
Thu 03:51:54 PM 39.1811 -72.0911 355° North 388 447 34,000  Level New York Center
Thu 03:52:54 PM 39.2894 -72.1011 356° North 388 447 34,000  Level New York Center
Thu 03:53:54 PM 39.3956 -72.1167 354° North 388 447 34,000  Level New York Center
Thu 03:55:53 PM 39.6111 -72.1464 354° North 391 450 34,000  Level Boston Center
Thu 03:56:54 PM 39.7175 -72.1606 354° North 390 449 34,000  Level Boston Center
Thu 03:57:54 PM 39.8236 -72.1736 355° North 388 447 34,000 -145 Level Boston Center
Thu 03:58:58 PM 39.9289 -72.1875 354° North 385 443 33,700 -726 Descending Boston Center
Thu 03:59:58 PM 40.0344 -72.2008 354° North 384 442 32,500 -1,736 Descending Boston Center
Thu 04:00:59 PM 40.1419 -72.2150 354° North 390 449 30,200 -2,112 Descending Boston Center
Thu 04:02:03 PM 40.2453 -72.2281 354° North 391 450 28,100 -1,645 Descending Boston Center
Thu 04:03:03 PM 40.3689 -72.2442 354° North 379 436 26,800 -1,140 Descending Boston Center
Thu 04:04:04 PM 40.4725 -72.2575 354° North 377 434 25,800 -1,016 Descending Boston Center
Thu 04:05:07 PM 40.5731 -72.2708 354° North 370 426 24,700 -968 Descending Boston Center
Thu 04:06:08 PM 40.6717 -72.2839 354° North 362 417 23,800 -942 Descending Boston Center
Thu 04:07:08 PM 40.7697 -72.2964 354° North 363 418 22,800 -968 Descending Boston Center
Thu 04:08:12 PM 40.8733 -72.2733 10° North 381 438 21,800 -968 Descending Boston Center
Thu 04:09:12 PM 40.9622 -72.1872 36° Northeast 393 452 20,800 -1,041 Descending Boston Center
Thu 04:10:13 PM 41.0672 -72.0831 37° Northeast 387 445 19,700 -871 Descending Boston Center
Thu 04:11:16 PM 41.1531 -72.0000 36° Northeast 383 441 19,000 -339 Descending Boston Center
Thu 04:12:17 PM 41.2408 -71.9131 37° Northeast 383 441 19,000 -393 Level Boston Center
Thu 04:13:18 PM 41.3253 -71.8294 37° Northeast 381 438 18,200 -1,033 Descending Boston Center
Thu 04:14:19 PM 41.4147 -71.7403 37° Northeast 379 436 16,900 -1,452 Descending Boston Center
Thu 04:15:22 PM 41.4939 -71.6611 37° Northeast 362 417 15,200 -1,561 Descending Boston Center
Thu 04:16:22 PM 41.5692 -71.5856 37° Northeast 345 397 13,700 -1,645 Descending Boston Center
Thu 04:17:26 PM 41.6458 -71.5094 37° Northeast 324 373 11,800 -1,296 Descending Boston Center
Thu 04:18:27 PM 41.7156 -71.4375 38° Northeast 322 371 11,000 -393 Descending Boston Center
Thu 04:19:28 PM 41.7861 -71.3661 37° Northeast 301 346 11,000 -246 Level Boston Center
Thu 04:20:29 PM 41.8553 -71.3217 26° Northeast 278 320 10,500 -1,525 Descending Boston Center
Thu 04:21:30 PM 41.9317 -71.2994 12° North 263 303 7,900 -2,754 Descending Boston Center
Thu 04:22:31 PM 42.0031 -71.2839 North 262 302 4,900 -1,887 Descending Boston Center
Thu 04:23:34 PM 42.0758 -71.2722 North 265 305 4,000 -435 Descending Boston Center
Thu 04:24:35 PM 42.1369 -71.2264 29° Northeast 246 283 4,000  Level Boston Center
Thu 04:25:36 PM 42.1892 -71.1719 38° Northeast 240 276 4,000 -295 Level Boston Center
Thu 04:26:37 PM 42.2300 -71.1194 44° Northeast 200 230 3,400 -934 Descending Boston Center
Thu 04:27:38 PM 42.2672 -71.0611 49° Northeast 190 219 2,100 -1,056 Descending Boston Center
Thu 04:28:42 PM 42.3075 -71.0383 23° Northeast 173 199 1,200 -864 Descending Boston Center
Thu 04:29:43 PM 42.3456 -71.0208 19° North 154 177 300 -885 Descending Boston Center

Login

Don't have an account? Register now (free) for customized features, flight alerts, and more!